Nashville, TN

5:33 PM CST on November 17, 2017 (GMT -0600)
Nashville International

Weather History for KBNA - May, 2014

Change the Weather History Date:

Thursday, May 8, 2014

  Actual Average Record
Temperature  
Mean Temperature 74 °F 65 °F  
Max Temperature 86 °F 76 °F 90 °F (1952)
Min Temperature 61 °F 55 °F 36 °F (1947)
Degree Days  
Heating Degree Days 0    
Month to date heating degree days 20  
Since 1 July heating degree days 3891  
Cooling Degree Days 9    
Month to date cooling degree days 38  
Year to date cooling degree days 75  
Growing Degree Days 24 (Base 50)    
Moisture  
Dew Point 55 °F    
Average Humidity 55    
Maximum Humidity 84    
Minimum Humidity 25    
Precipitation  
Precipitation 0.00 in 0.19 in 1.68 in (1978)
Month to date precipitation 0.00 1.51  
Year to date precipitation 19.35 17.31  
Snow  
Snow 0.00 in - 0.00 in (2002)
Month to date snowfall 0.0  
Since 1 July snowfall 1.6  
Snow Depth 0.00 in    
Sea Level Pressure  
Sea Level Pressure 30.07 in    
Wind  
Wind Speed 9 mph (South)    
Max Wind Speed 22 mph    
Max Gust Speed 28 mph    
Visibility 10 miles    
Events      
T = Trace of Precipitation, MM = Missing Value Source: NWS Daily Summary

Daily Weather History Graph

Daily Weather History Graph

Search for Another Location

Airport or City:

Trip Planner

Search our weather history database for the weather conditions in past years. The results will help you decide how hot, cold, wet, or windy it might be!

Date:

Astronomy

May. 08, 2014 Rise Set
Actual Time 5:46 AM CDT 7:40 PM CDT
Civil Twilight 5:18 AM CDT 8:08 PM CDT
Nautical Twilight 4:44 AM CDT 8:42 PM CDT
Astronomical Twilight 4:08 AM CDT 9:18 PM CDT
Moon 1:51 PM CDT (5/8) 2:06 AM CDT (5/8)
Length of Visible Light 14h 49m
Length of Day
13h 53m
Waxing Gibbous, 65% of the Moon is Illuminated
May 8
Waxing Gibbous
May 14
Full
May 21
Last Quarter
May 28
New
Jun 5
First Quarter

Hourly Weather History & Observations

Time (CDT) Temp. Heat Index Dew Point Humidity Pressure Visibility Wind Dir Wind Speed Gust Speed Precip Events Conditions
12:53 AM 66.9 °F - 57.0 °F 70% 30.03 in 10.0 mi South 4.6 mph - N/A   Clear
1:53 AM 66.2 °F - 57.2 °F 73% 30.05 in 10.0 mi SSE 4.6 mph - N/A   Clear
2:53 AM 66.0 °F - 57.0 °F 73% 30.04 in 10.0 mi SSE 4.6 mph - N/A   Clear
3:53 AM 64.9 °F - 57.0 °F 75% 30.04 in 10.0 mi South 4.6 mph - N/A   Clear
4:53 AM 63.0 °F - 57.9 °F 84% 30.06 in 10.0 mi South 3.5 mph - N/A   Clear
5:53 AM 62.1 °F - 57.0 °F 84% 30.09 in 10.0 mi South 4.6 mph - N/A   Partly Cloudy
6:53 AM 64.0 °F - 59.0 °F 84% 30.12 in 9.0 mi South 3.5 mph - N/A   Partly Cloudy
7:53 AM 70.0 °F - 61.0 °F 73% 30.12 in 10.0 mi SSE 10.4 mph - N/A   Partly Cloudy
8:53 AM 73.9 °F - 61.0 °F 64% 30.13 in 10.0 mi SSW 12.7 mph 17.3 mph N/A   Partly Cloudy
9:53 AM 78.8 °F - 60.8 °F 54% 30.15 in 10.0 mi SSW 11.5 mph 19.6 mph N/A   Scattered Clouds
10:53 AM 81.0 °F 80.5 °F 54.0 °F 39% 30.12 in 10.0 mi SSW 13.8 mph 21.9 mph N/A   Mostly Cloudy
11:53 AM 82.0 °F - 51.1 °F 34% 30.11 in 10.0 mi SW 10.4 mph 26.5 mph N/A   Mostly Cloudy
12:53 PM 84.2 °F - 48.2 °F 29% 30.10 in 10.0 mi SW 10.4 mph - N/A   Mostly Cloudy
1:53 PM 86.0 °F - 46.0 °F 25% 30.06 in 10.0 mi South 16.1 mph - N/A   Mostly Cloudy
2:53 PM 84.0 °F - 48.9 °F 29% 30.04 in 10.0 mi South 15.0 mph - N/A   Mostly Cloudy
3:53 PM 84.2 °F - 51.8 °F 33% 30.05 in 10.0 mi South 18.4 mph 24.2 mph N/A   Mostly Cloudy
4:53 PM 84.9 °F - 52.0 °F 32% 30.04 in 10.0 mi South 16.1 mph 21.9 mph N/A   Overcast
5:53 PM 82.9 °F - 50.0 °F 32% 30.04 in 10.0 mi South 13.8 mph - N/A   Overcast
6:53 PM 79.0 °F - 50.0 °F 36% 30.04 in 10.0 mi South 6.9 mph - N/A   Overcast
7:53 PM 75.0 °F - 53.1 °F 46% 30.04 in 10.0 mi South 3.5 mph - N/A   Overcast
8:53 PM 73.0 °F - 54.0 °F 51% 30.04 in 10.0 mi South 6.9 mph - N/A   Overcast
9:53 PM 73.0 °F - 55.0 °F 53% 30.04 in 10.0 mi South 6.9 mph - N/A   Overcast
10:53 PM 73.9 °F - 55.9 °F 53% 30.03 in 10.0 mi South 8.1 mph - N/A   Overcast
11:53 PM 73.0 °F - 57.0 °F 57% 30.02 in 10.0 mi South 6.9 mph - N/A   Overcast